STARLINK-34318, 64222

Orbit data source: Space-Track

STARLINK-34318, 64222 is a payload satellite owned by SpaceX/Seattle (US) in LEO that was launched on Thu, 05 Jun 2025 UTC via an FALCON 9 launch vehicle from the Air Force Western Test Range (AFWTR). Payload-class satellites include a variety of spacecraft equipped with specific instruments for various scientific and technological missions. These include communications satellites like Starlink; space stations such as the ISS; scientific satellites like the Hubble; Earth observation satellites from companies like Planet Labs, Umbra, and HawkEye 360; GPS; miniature CubeSats for education and research; and military/defense satellites.

Loading next visibility...
Identifier
64222, 2025-117V
Orbit
LEO
Last TLE update
9 hours ago
Origin
Manufacturer
SpaceX/Seattle
Mission
Operational spacecraft
Bus & Motor
STARLINK V2MO, Unknown motor
Mass
575 kg wet, ~530 kg dry
Launch date (UTC)
2025-06-05 (2 weeks ago)
Launch vehicle
FALCON 9
Launch site
Air Force Western Test Range (AFWTR)
Object type
Payload
Rocket body
Debris
Shape & HBR
Unknown
Radar Cross Section
Large (>1 m²)

Expand to show TLE details & history

TLE from 9 hours ago
0 STARLINK-34318
1 64222U 25117V   25169.91668981 -.01482155  00000-0 -14131-1 0  9992
2 64222  53.1599 190.4392 0001181  99.4067 188.3973 15.68858195  4014
Epoch: 2025-06-18T22:00Z
TLE epoch observation values (Epoch: 2025-06-18T22:00:01.999Z)
Latitude
-49.81433°
Longitude
-108.84924°
Altitude
380.113 km
Speed
7.681 km/s
True Right ascension
08h 34m 12s
True Declination
-49° 38' 07"
Sunlit
Object was in daylight at epoch
Visualization orbit readout
Latitude
35.17619°
Longitude
99.61874°
Altitude
367.442 km
Speed
7.694 km/s
Apparent Right ascension
01h 37m 44s
Apparent Declination
-1° 49' 03"
Sunlit
Object is in daylight
Visualization observer readout
Local Sidereal Time
17:21:57
Azimuth
68.072° E
Elevation
-26.642°
Doppler factor
1
Orbital elements
Apogee altitude
363.222 km
Perigee altitude
361.63 km
Semi-major axis
6,740.563 km
Eccentricity
0.00012
Inclination
53.1599°
RAAN
190.4392°
Arg. of periapsis
99.4067°
True anomaly
Unknown
Mean anomaly
188.3973°
Eccentric anomaly
Unknown
Mean motion
3.92192 °/min
Orbital period
91.79 mins
BSTAR
-0.014131
Loading maneuver chart data...
Loading SW <> Apogee altitude chart data...
Loading historical data...
Loading historical data...
Loading historical data...
Loading historical data...
Loading historical data...
Loading historical data...
Loading historical data...

STARLINK-34318 Visibility forecast

Observer location: undefined°, undefined°

Span
Click to sort rows by Start time (UTC) header in descending order
Start Az.
Max El. time (UTC)
Max El. Az.
Max El.
End time (UTC)
End Az.
4 mins2025-06-19 11:03:27.655Z310.173° NW2025-06-19 11:05:27.655Z130.789° SE41.636°2025-06-19 11:07:27.655Z130.916° SE
4 mins2025-06-20 03:34:27.655Z204.495° SW2025-06-20 03:36:27.655Z125.584° SE36.583°2025-06-20 03:38:27.655Z64.944° ENE
|